Time,TemperatureF,DewpointF,PressureIn,WindDirection,WindDirectionDegrees,WindSpeedMPH,WindSpeedGustMPH,Humidity,HourlyPrecipIn,Conditions,Clouds,dailyrainin,SolarRadiationWatts/m^2,SoftwareType,DateUTC
2013-09-07 00:00:00,80.5,73.0,29.88,SE,137,0.0,0.0,78,0.00,,,0.00,0,Wunderground v.1.15,2013-09-07 05:00:00,
2013-09-07 00:05:00,80.4,73.3,29.88,SE,137,0.0,2.0,79,0.00,,,0.00,0,Wunderground v.1.15,2013-09-07 05:05:00,
2013-09-07 00:10:00,80.3,73.2,29.88,SE,137,1.0,1.0,79,0.00,,,0.00,0,Wunderground v.1.15,2013-09-07 05:10:00,
2013-09-07 00:15:00,80.3,73.6,29.88,SE,137,1.0,1.0,80,0.00,,,0.00,0,Wunderground v.1.15,2013-09-07 05:15:00,
2013-09-07 00:20:00,80.2,73.5,29.88,SE,137,0.0,0.0,80,0.00,,,0.00,0,Wunderground v.1.15,2013-09-07 05:20:00,
2013-09-07 00:25:00,80.2,73.5,29.88,SE,137,0.0,0.0,80,0.00,,,0.00,0,Wunderground v.1.15,2013-09-07 05:25:00,
2013-09-07 00:30:00,80.1,73.4,29.88,SE,137,0.0,0.0,80,0.00,,,0.00,0,Wunderground v.1.15,2013-09-07 05:30:00,
2013-09-07 00:35:00,80.1,73.4,29.88,SE,137,0.0,0.0,80,0.00,,,0.00,0,Wunderground v.1.15,2013-09-07 05:35:00,
2013-09-07 00:40:00,80.0,73.3,29.88,SE,137,0.0,0.0,80,0.00,,,0.00,0,Wunderground v.1.15,2013-09-07 05:40:00,
2013-09-07 00:45:00,79.9,73.2,29.87,SE,137,0.0,0.0,80,0.00,,,0.00,0,Wunderground v.1.15,2013-09-07 05:45:00,
2013-09-07 00:50:00,79.7,73.0,29.87,SE,137,0.0,0.0,80,0.00,,,0.00,0,Wunderground v.1.15,2013-09-07 05:50:00,
2013-09-07 00:55:00,79.5,73.2,29.87,SE,137,0.0,0.0,81,0.00,,,0.00,0,Wunderground v.1.15,2013-09-07 05:55:00,
2013-09-07 01:00:00,79.4,73.1,29.88,SE,138,0.0,0.0,81,0.00,,,0.00,0,Wunderground v.1.15,2013-09-07 06:00:00,
2013-09-07 01:05:00,79.2,72.9,29.88,SE,137,0.0,0.0,81,0.00,,,0.00,0,Wunderground v.1.15,2013-09-07 06:05:00,
2013-09-07 01:10:00,79.0,73.0,29.88,SE,137,0.0,0.0,82,0.00,,,0.00,0,Wunderground v.1.15,2013-09-07 06:10:00,
2013-09-07 01:15:00,78.7,72.7,29.87,SE,137,0.0,0.0,82,0.00,,,0.00,0,Wunderground v.1.15,2013-09-07 06:15:00,
2013-09-07 01:20:00,78.7,72.7,29.87,SE,137,0.0,0.0,82,0.00,,,0.00,0,Wunderground v.1.15,2013-09-07 06:20:00,
2013-09-07 01:25:00,78.5,72.9,29.87,SE,137,0.0,0.0,83,0.00,,,0.00,0,Wunderground v.1.15,2013-09-07 06:25:00,
2013-09-07 01:30:00,78.4,72.8,29.88,SE,138,0.0,0.0,83,0.00,,,0.00,0,Wunderground v.1.15,2013-09-07 06:30:00,
2013-09-07 01:35:00,78.3,72.7,29.88,SE,137,0.0,0.0,83,0.00,,,0.00,0,Wunderground v.1.15,2013-09-07 06:35:00,
2013-09-07 01:40:00,78.1,72.5,29.88,SE,137,0.0,0.0,83,0.00,,,0.00,0,Wunderground v.1.15,2013-09-07 06:40:00,
2013-09-07 01:50:00,77.9,72.7,29.88,SE,137,0.0,0.0,84,0.00,,,0.00,0,Wunderground v.1.15,2013-09-07 06:50:00,
2013-09-07 01:55:00,77.8,72.9,29.88,SE,137,0.0,0.0,85,0.00,,,0.00,0,Wunderground v.1.15,2013-09-07 06:55:00,
2013-09-07 02:05:00,77.7,72.8,29.88,SE,137,0.0,0.0,85,0.00,,,0.00,0,Wunderground v.1.15,2013-09-07 07:05:00,
2013-09-07 02:10:00,77.6,72.7,29.88,SE,137,0.0,0.0,85,0.00,,,0.00,0,Wunderground v.1.15,2013-09-07 07:10:00,
2013-09-07 02:15:00,77.6,73.1,29.88,SE,137,0.0,0.0,86,0.00,,,0.00,0,Wunderground v.1.15,2013-09-07 07:15:00,
2013-09-07 02:20:00,77.5,73.0,29.88,SE,137,0.0,0.0,86,0.00,,,0.00,0,Wunderground v.1.15,2013-09-07 07:20:00,
2013-09-07 02:25:00,77.5,73.0,29.88,SE,137,0.0,0.0,86,0.00,,,0.00,0,Wunderground v.1.15,2013-09-07 07:25:00,
2013-09-07 02:30:00,77.5,73.0,29.87,SE,137,0.0,0.0,86,0.00,,,0.00,0,Wunderground v.1.15,2013-09-07 07:30:00,
2013-09-07 02:35:00,77.5,73.3,29.87,SE,137,0.0,1.0,87,0.00,,,0.00,0,Wunderground v.1.15,2013-09-07 07:35:00,
2013-09-07 02:40:00,77.5,73.3,29.87,SE,137,0.0,0.0,87,0.00,,,0.00,0,Wunderground v.1.15,2013-09-07 07:40:00,
2013-09-07 02:45:00,77.5,73.3,29.86,SE,137,0.0,0.0,87,0.00,,,0.00,0,Wunderground v.1.15,2013-09-07 07:45:00,
2013-09-07 02:50:00,77.5,73.7,29.86,SE,137,0.0,0.0,88,0.00,,,0.00,0,Wunderground v.1.15,2013-09-07 07:50:00,
2013-09-07 02:55:00,77.6,73.8,29.86,SE,137,0.0,0.0,88,0.00,,,0.00,0,Wunderground v.1.15,2013-09-07 07:55:00,
2013-09-07 03:00:00,77.6,73.8,29.86,SE,137,0.0,0.0,88,0.00,,,0.00,0,Wunderground v.1.15,2013-09-07 08:00:00,
2013-09-07 03:05:00,77.7,73.9,29.86,SE,137,0.0,0.0,88,0.00,,,0.00,0,Wunderground v.1.15,2013-09-07 08:05:00,
2013-09-07 03:10:00,77.7,73.9,29.86,SE,137,0.0,0.0,88,0.00,,,0.00,0,Wunderground v.1.15,2013-09-07 08:10:00,
2013-09-07 03:15:00,77.7,73.9,29.87,SE,137,0.0,0.0,88,0.00,,,0.00,0,Wunderground v.1.15,2013-09-07 08:15:00,
2013-09-07 03:25:00,77.9,74.1,29.87,SE,137,0.0,0.0,88,0.00,,,0.00,0,Wunderground v.1.15,2013-09-07 08:25:00,
2013-09-07 03:30:00,77.9,74.1,29.87,SE,137,0.0,0.0,88,0.00,,,0.00,0,Wunderground v.1.15,2013-09-07 08:30:00,
2013-09-07 03:35:00,78.0,74.2,29.87,SE,137,0.0,0.0,88,0.00,,,0.00,0,Wunderground v.1.15,2013-09-07 08:35:00,
2013-09-07 03:40:00,78.0,74.2,29.87,SE,137,0.0,0.0,88,0.00,,,0.00,0,Wunderground v.1.15,2013-09-07 08:40:00,
2013-09-07 03:45:00,78.0,74.2,29.87,SE,138,0.0,0.0,88,0.00,,,0.00,0,Wunderground v.1.15,2013-09-07 08:45:00,
2013-09-07 03:55:00,77.9,74.1,29.87,SE,137,0.0,0.0,88,0.00,,,0.00,0,Wunderground v.1.15,2013-09-07 08:55:00,
2013-09-07 04:00:00,77.9,74.1,29.87,SE,137,0.0,0.0,88,0.00,,,0.00,0,Wunderground v.1.15,2013-09-07 09:00:00,
2013-09-07 04:05:00,77.8,74.0,29.87,SE,137,0.0,0.0,88,0.00,,,0.00,0,Wunderground v.1.15,2013-09-07 09:05:00,
2013-09-07 04:15:00,77.6,73.4,29.87,SE,137,0.0,0.0,87,0.00,,,0.00,0,Wunderground v.1.15,2013-09-07 09:15:00,
2013-09-07 04:20:00,77.5,73.3,29.87,SE,137,0.0,0.0,87,0.00,,,0.00,0,Wunderground v.1.15,2013-09-07 09:20:00,
2013-09-07 04:25:00,77.4,73.2,29.87,SE,137,0.0,0.0,87,0.00,,,0.00,0,Wunderground v.1.15,2013-09-07 09:25:00,
2013-09-07 04:30:00,77.2,73.0,29.87,SE,137,0.0,0.0,87,0.00,,,0.00,0,Wunderground v.1.15,2013-09-07 09:30:00,
2013-09-07 04:35:00,77.1,72.9,29.87,SE,137,0.0,0.0,87,0.00,,,0.00,0,Wunderground v.1.15,2013-09-07 09:35:00,
2013-09-07 04:40:00,77.0,72.8,29.87,SE,137,0.0,0.0,87,0.00,,,0.00,0,Wunderground v.1.15,2013-09-07 09:40:00,
2013-09-07 04:45:00,76.8,73.0,29.87,SE,137,0.0,0.0,88,0.00,,,0.00,0,Wunderground v.1.15,2013-09-07 09:45:00,
2013-09-07 04:50:00,76.7,72.9,29.87,SE,138,0.0,0.0,88,0.00,,,0.00,0,Wunderground v.1.15,2013-09-07 09:50:00,
2013-09-07 04:55:00,76.6,72.8,29.87,SE,137,0.0,0.0,88,0.00,,,0.00,0,Wunderground v.1.15,2013-09-07 09:55:00,
2013-09-07 05:00:00,76.5,72.7,29.87,SE,137,0.0,0.0,88,0.00,,,0.00,0,Wunderground v.1.15,2013-09-07 10:00:00,
2013-09-07 05:05:00,76.4,72.6,29.87,SE,138,0.0,0.0,88,0.00,,,0.00,0,Wunderground v.1.15,2013-09-07 10:05:00,
2013-09-07 05:10:00,76.4,72.9,29.87,SE,137,0.0,0.0,89,0.00,,,0.00,0,Wunderground v.1.15,2013-09-07 10:10:00,
2013-09-07 05:20:00,76.4,72.9,29.87,SE,137,0.0,0.0,89,0.00,,,0.00,0,Wunderground v.1.15,2013-09-07 10:20:00,
2013-09-07 05:25:00,76.5,73.3,29.87,SE,138,0.0,0.0,90,0.00,,,0.00,0,Wunderground v.1.15,2013-09-07 10:25:00,
2013-09-07 05:30:00,76.5,73.3,29.87,SE,137,0.0,0.0,90,0.00,,,0.00,0,Wunderground v.1.15,2013-09-07 10:30:00,
2013-09-07 05:40:00,76.5,73.3,29.87,SE,138,0.0,0.0,90,0.00,,,0.00,0,Wunderground v.1.15,2013-09-07 10:40:00,
2013-09-07 05:45:00,76.4,73.2,29.88,SE,138,0.0,0.0,90,0.00,,,0.00,0,Wunderground v.1.15,2013-09-07 10:45:00,
2013-09-07 05:50:00,76.4,73.2,29.88,SE,137,0.0,0.0,90,0.00,,,0.00,0,Wunderground v.1.15,2013-09-07 10:50:00,
2013-09-07 05:55:00,76.4,73.6,29.88,SE,138,0.0,0.0,91,0.00,,,0.00,0,Wunderground v.1.15,2013-09-07 10:55:00,
2013-09-07 06:00:00,76.3,73.5,29.88,SE,138,0.0,0.0,91,0.00,,,0.00,0,Wunderground v.1.15,2013-09-07 11:00:00,
2013-09-07 06:05:00,76.3,73.5,29.88,SE,138,0.0,0.0,91,0.00,,,0.00,0,Wunderground v.1.15,2013-09-07 11:05:00,
2013-09-07 06:10:00,76.3,73.5,29.88,SE,138,0.0,0.0,91,0.00,,,0.00,0,Wunderground v.1.15,2013-09-07 11:10:00,
2013-09-07 06:15:00,76.2,73.4,29.88,SE,138,0.0,0.0,91,0.00,,,0.00,0,Wunderground v.1.15,2013-09-07 11:15:00,
2013-09-07 06:20:00,76.2,73.4,29.88,SE,138,0.0,0.0,91,0.00,,,0.00,0,Wunderground v.1.15,2013-09-07 11:20:00,
2013-09-07 06:25:00,76.2,73.4,29.88,SE,137,0.0,0.0,91,0.00,,,0.00,0,Wunderground v.1.15,2013-09-07 11:25:00,
2013-09-07 06:35:00,76.1,73.3,29.89,SE,137,0.0,0.0,91,0.00,,,0.00,0,Wunderground v.1.15,2013-09-07 11:35:00,
2013-09-07 06:40:00,76.1,73.3,29.89,SE,137,0.0,0.0,91,0.00,,,0.00,0,Wunderground v.1.15,2013-09-07 11:40:00,
2013-09-07 06:45:00,76.0,73.2,29.89,SE,137,0.0,0.0,91,0.00,,,0.00,0,Wunderground v.1.15,2013-09-07 11:45:00,
2013-09-07 06:50:00,75.9,73.1,29.89,SE,137,0.0,0.0,91,0.00,,,0.00,0,Wunderground v.1.15,2013-09-07 11:50:00,
2013-09-07 06:55:00,75.9,73.1,29.89,SE,137,0.0,0.0,91,0.00,,,0.00,0,Wunderground v.1.15,2013-09-07 11:55:00,
2013-09-07 07:00:00,75.8,73.0,29.88,SE,137,0.0,0.0,91,0.00,,,0.00,0,Wunderground v.1.15,2013-09-07 12:00:00,
2013-09-07 07:05:00,75.8,73.0,29.88,SE,137,0.0,0.0,91,0.00,,,0.00,0,Wunderground v.1.15,2013-09-07 12:05:00,
2013-09-07 07:10:00,75.7,72.9,29.88,SE,137,0.0,0.0,91,0.00,,,0.00,0,Wunderground v.1.15,2013-09-07 12:10:00,
2013-09-07 07:15:00,75.6,72.8,29.89,SE,138,0.0,0.0,91,0.00,,,0.00,0,Wunderground v.1.15,2013-09-07 12:15:00,
2013-09-07 07:20:00,75.5,72.7,29.89,SE,137,0.0,0.0,91,0.00,,,0.00,9,Wunderground v.1.15,2013-09-07 12:20:00,
2013-09-07 07:30:00,75.4,72.6,29.90,SE,137,0.0,0.0,91,0.00,,,0.00,16,Wunderground v.1.15,2013-09-07 12:30:00,
2013-09-07 07:35:00,75.3,72.8,29.90,SE,137,0.0,0.0,92,0.00,,,0.00,18,Wunderground v.1.15,2013-09-07 12:35:00,
2013-09-07 07:40:00,75.3,72.8,29.90,SE,137,0.0,0.0,92,0.00,,,0.00,23,Wunderground v.1.15,2013-09-07 12:40:00,
2013-09-07 07:45:00,75.3,72.8,29.90,SE,137,0.0,0.0,92,0.00,,,0.00,28,Wunderground v.1.15,2013-09-07 12:45:00,
2013-09-07 07:55:00,75.5,73.0,29.90,SE,138,0.0,0.0,92,0.00,,,0.00,33,Wunderground v.1.15,2013-09-07 12:55:00,
2013-09-07 08:00:00,75.5,73.3,29.90,SE,137,0.0,0.0,93,0.00,,,0.00,35,Wunderground v.1.15,2013-09-07 13:00:00,
2013-09-07 08:05:00,75.7,73.5,29.90,SE,138,0.0,0.0,93,0.00,,,0.00,39,Wunderground v.1.15,2013-09-07 13:05:00,
2013-09-07 08:10:00,75.8,73.6,29.90,SE,138,0.0,0.0,93,0.00,,,0.00,40,Wunderground v.1.15,2013-09-07 13:10:00,
2013-09-07 08:15:00,76.0,73.8,29.91,SE,137,0.0,0.0,93,0.00,,,0.00,47,Wunderground v.1.15,2013-09-07 13:15:00,
2013-09-07 08:20:00,76.1,73.9,29.91,SE,138,0.0,0.0,93,0.00,,,0.00,70,Wunderground v.1.15,2013-09-07 13:20:00,
2013-09-07 08:30:00,76.5,74.6,29.92,SE,138,0.0,0.0,94,0.00,,,0.00,95,Wunderground v.1.15,2013-09-07 13:30:00,
2013-09-07 08:35:00,76.7,74.5,29.92,SE,138,0.0,0.0,93,0.00,,,0.00,84,Wunderground v.1.15,2013-09-07 13:35:00,
2013-09-07 08:40:00,76.9,74.7,29.92,SE,137,0.0,0.0,93,0.00,,,0.00,91,Wunderground v.1.15,2013-09-07 13:40:00,
2013-09-07 08:45:00,77.0,74.8,29.92,SE,138,0.0,0.0,93,0.00,,,0.00,84,Wunderground v.1.15,2013-09-07 13:45:00,
2013-09-07 08:50:00,77.2,75.0,29.92,SE,137,0.0,0.0,93,0.00,,,0.00,72,Wunderground v.1.15,2013-09-07 13:50:00,
2013-09-07 08:55:00,77.4,75.2,29.92,SE,137,0.0,0.0,93,0.00,,,0.00,86,Wunderground v.1.15,2013-09-07 13:55:00,
2013-09-07 09:00:00,77.6,75.4,29.92,SE,137,0.0,0.0,93,0.00,,,0.00,90,Wunderground v.1.15,2013-09-07 14:00:00,
2013-09-07 09:05:00,77.8,75.6,29.92,SE,138,0.0,0.0,93,0.00,,,0.00,118,Wunderground v.1.15,2013-09-07 14:05:00,
2013-09-07 09:10:00,78.7,75.8,29.92,SE,137,0.0,0.0,91,0.00,,,0.00,183,Wunderground v.1.15,2013-09-07 14:10:00,
2013-09-07 09:15:00,79.3,75.8,29.92,SE,137,0.0,0.0,89,0.00,,,0.00,225,Wunderground v.1.15,2013-09-07 14:15:00,
2013-09-07 09:20:00,80.1,75.9,29.92,SE,138,0.0,0.0,87,0.00,,,0.00,338,Wunderground v.1.15,2013-09-07 14:20:00,
2013-09-07 09:30:00,80.9,76.0,29.92,SE,137,0.0,0.0,85,0.00,,,0.00,417,Wunderground v.1.15,2013-09-07 14:30:00,
2013-09-07 09:35:00,81.2,75.9,29.92,SE,138,0.0,0.0,84,0.00,,,0.00,434,Wunderground v.1.15,2013-09-07 14:35:00,
2013-09-07 09:40:00,81.7,75.7,29.92,SE,138,0.0,0.0,82,0.00,,,0.00,459,Wunderground v.1.15,2013-09-07 14:40:00,
2013-09-07 09:45:00,81.7,75.7,29.92,SE,137,0.0,0.0,82,0.00,,,0.00,90,Wunderground v.1.15,2013-09-07 14:45:00,
2013-09-07 09:50:00,81.2,75.5,29.92,SE,138,0.0,0.0,83,0.00,,,0.00,107,Wunderground v.1.15,2013-09-07 14:50:00,
2013-09-07 14:15:00,91.8,72.8,29.85,NE,51,1.0,1.0,54,0.00,,,0.00,274,Wunderground v.1.15,2013-09-07 19:15:00,
2013-09-07 14:20:00,92.3,72.7,29.85,NE,51,1.0,1.0,53,0.00,,,0.00,1034,Wunderground v.1.15,2013-09-07 19:20:00,
2013-09-07 14:25:00,92.9,72.1,29.85,NE,51,0.0,0.0,51,0.00,,,0.00,227,Wunderground v.1.15,2013-09-07 19:25:00,
2013-09-07 14:30:00,93.4,72.6,29.83,NE,51,0.0,0.0,51,0.00,,,0.00,253,Wunderground v.1.15,2013-09-07 19:30:00,
2013-09-07 14:35:00,93.7,73.4,29.83,NE,51,1.0,1.0,52,0.00,,,0.00,1011,Wunderground v.1.15,2013-09-07 19:35:00,
2013-09-07 14:40:00,95.2,73.0,29.83,NE,51,1.0,1.0,49,0.00,,,0.00,1030,Wunderground v.1.15,2013-09-07 19:40:00,
2013-09-07 14:50:00,92.9,72.7,29.82,NE,53,1.0,4.0,52,0.00,,,0.00,241,Wunderground v.1.15,2013-09-07 19:50:00,
2013-09-07 15:00:00,94.1,72.6,29.82,NE,53,1.0,1.0,50,0.00,,,0.00,937,Wunderground v.1.15,2013-09-07 20:00:00,
2013-09-07 15:05:00,94.6,73.1,29.82,ENE,57,0.0,1.0,50,0.00,,,0.00,218,Wunderground v.1.15,2013-09-07 20:05:00,
2013-09-07 15:10:00,93.1,71.7,29.82,East,84,1.0,1.0,50,0.00,,,0.00,197,Wunderground v.1.15,2013-09-07 20:10:00,
2013-09-07 15:15:00,92.1,71.9,29.81,East,84,1.0,1.0,52,0.00,,,0.00,218,Wunderground v.1.15,2013-09-07 20:15:00,
2013-09-07 15:20:00,91.9,72.3,29.81,East,83,0.0,0.0,53,0.00,,,0.00,232,Wunderground v.1.15,2013-09-07 20:20:00,
2013-09-07 15:25:00,92.3,72.1,29.81,East,83,0.0,0.0,52,0.00,,,0.00,267,Wunderground v.1.15,2013-09-07 20:25:00,
2013-09-07 15:30:00,92.6,73.0,29.81,East,84,1.0,3.0,53,0.00,,,0.00,274,Wunderground v.1.15,2013-09-07 20:30:00,
2013-09-07 15:35:00,92.7,71.9,29.81,East,95,3.0,3.0,51,0.00,,,0.00,287,Wunderground v.1.15,2013-09-07 20:35:00,
2013-09-07 15:40:00,92.8,72.0,29.81,ESE,103,4.0,4.0,51,0.00,,,0.00,281,Wunderground v.1.15,2013-09-07 20:40:00,
2013-09-07 15:45:00,92.8,73.7,29.80,SE,130,6.0,12.0,54,0.00,,,0.00,181,Wunderground v.1.15,2013-09-07 20:45:00,
2013-09-07 15:50:00,90.7,73.9,29.80,SE,141,11.0,11.0,58,0.00,,,0.00,153,Wunderground v.1.15,2013-09-07 20:50:00,
2013-09-07 15:55:00,88.3,75.5,29.80,SE,144,12.0,12.0,66,0.00,,,0.00,181,Wunderground v.1.15,2013-09-07 20:55:00,
2013-09-07 16:00:00,85.2,76.0,29.81,SSE,151,10.0,10.0,74,0.00,,,0.00,188,Wunderground v.1.15,2013-09-07 21:00:00,
2013-09-07 16:05:00,83.7,76.5,29.81,SE,138,8.0,10.0,79,0.00,,,0.00,192,Wunderground v.1.15,2013-09-07 21:05:00,
2013-09-07 16:15:00,80.5,75.9,29.81,SE,140,7.0,7.0,86,0.68,,,0.16,229,Wunderground v.1.15,2013-09-07 21:15:00,
2013-09-07 16:20:00,80.5,76.3,29.81,SE,126,6.0,6.0,87,0.13,,,0.17,636,Wunderground v.1.15,2013-09-07 21:20:00,
2013-09-07 16:25:00,81.1,76.9,29.81,SE,140,5.0,6.0,87,0.06,,,0.17,612,Wunderground v.1.15,2013-09-07 21:25:00,
2013-09-07 16:30:00,81.5,76.9,29.80,SSE,160,5.0,5.0,86,0.04,,,0.17,179,Wunderground v.1.15,2013-09-07 21:30:00,
2013-09-07 16:35:00,81.7,76.4,29.80,SSE,157,5.0,5.0,84,0.00,,,0.17,278,Wunderground v.1.15,2013-09-07 21:35:00,
2013-09-07 16:40:00,81.8,75.4,29.80,SSE,161,4.0,4.0,81,0.00,,,0.17,139,Wunderground v.1.15,2013-09-07 21:40:00,
2013-09-07 16:45:00,82.7,75.5,29.79,SSE,150,5.0,6.0,79,0.00,,,0.17,292,Wunderground v.1.15,2013-09-07 21:45:00,
2013-09-07 16:50:00,83.9,75.5,29.79,SE,144,4.0,4.0,76,0.00,,,0.17,172,Wunderground v.1.15,2013-09-07 21:50:00,
2013-09-07 16:55:00,84.3,76.3,29.79,SE,127,1.0,4.0,77,0.00,,,0.17,548,Wunderground v.1.15,2013-09-07 21:55:00,
2013-09-07 17:00:00,85.7,76.0,29.79,SE,132,2.0,2.0,73,0.00,,,0.17,508,Wunderground v.1.15,2013-09-07 22:00:00,
2013-09-07 17:05:00,86.7,75.7,29.79,SE,146,4.0,10.0,70,0.00,,,0.17,515,Wunderground v.1.15,2013-09-07 22:05:00,
2013-09-07 17:10:00,86.9,75.9,29.79,SSE,150,4.0,11.0,70,0.00,,,0.17,125,Wunderground v.1.15,2013-09-07 22:10:00,
2013-09-07 17:15:00,85.7,75.2,29.79,SE,134,5.0,11.0,71,0.00,,,0.17,118,Wunderground v.1.15,2013-09-07 22:15:00,
2013-09-07 17:20:00,86.1,75.2,29.79,SE,132,6.0,6.0,70,0.00,,,0.17,455,Wunderground v.1.15,2013-09-07 22:20:00,
2013-09-07 17:25:00,87.1,73.9,29.79,ESE,117,6.0,8.0,65,0.00,,,0.17,422,Wunderground v.1.15,2013-09-07 22:25:00,
2013-09-07 17:30:00,88.1,74.4,29.79,ESE,122,7.0,10.0,64,0.00,,,0.17,397,Wunderground v.1.15,2013-09-07 22:30:00,
2013-09-07 17:35:00,87.7,73.5,29.79,ESE,104,10.0,10.0,63,0.00,,,0.17,381,Wunderground v.1.15,2013-09-07 22:35:00,
2013-09-07 17:40:00,87.9,73.7,29.79,ESE,119,9.0,9.0,63,0.00,,,0.17,374,Wunderground v.1.15,2013-09-07 22:40:00,
2013-09-07 17:45:00,88.1,74.8,29.79,ESE,111,5.0,9.0,65,0.00,,,0.17,369,Wunderground v.1.15,2013-09-07 22:45:00,
2013-09-07 17:50:00,88.4,75.1,29.79,ESE,115,3.0,3.0,65,0.00,,,0.17,345,Wunderground v.1.15,2013-09-07 22:50:00,
2013-09-07 17:55:00,88.4,74.7,29.79,SE,134,3.0,3.0,64,0.00,,,0.17,327,Wunderground v.1.15,2013-09-07 22:55:00,
2013-09-07 18:00:00,88.6,74.9,29.79,ESE,120,2.0,11.0,64,0.00,,,0.17,315,Wunderground v.1.15,2013-09-07 23:00:00,
2013-09-07 18:05:00,88.6,74.4,29.79,SE,142,3.0,11.0,63,0.00,,,0.17,290,Wunderground v.1.15,2013-09-07 23:05:00,
2013-09-07 18:10:00,88.1,74.4,29.79,ENE,61,4.0,4.0,64,0.00,,,0.17,269,Wunderground v.1.15,2013-09-07 23:10:00,
2013-09-07 18:15:00,88.0,74.3,29.79,ESE,121,2.0,7.0,64,0.00,,,0.17,251,Wunderground v.1.15,2013-09-07 23:15:00,
2013-09-07 18:20:00,88.0,74.3,29.79,SE,132,2.0,7.0,64,0.00,,,0.17,236,Wunderground v.1.15,2013-09-07 23:20:00,
2013-09-07 18:30:00,87.7,74.0,29.80,East,93,1.0,1.0,64,0.00,,,0.17,202,Wunderground v.1.15,2013-09-07 23:30:00,
2013-09-07 18:35:00,87.5,74.7,29.80,ENE,59,2.0,6.0,66,0.00,,,0.17,186,Wunderground v.1.15,2013-09-07 23:35:00,
2013-09-07 18:40:00,87.4,74.2,29.80,ESE,118,4.0,4.0,65,0.00,,,0.17,174,Wunderground v.1.15,2013-09-07 23:40:00,
2013-09-07 18:45:00,87.4,74.2,29.81,SE,132,4.0,12.0,65,0.00,,,0.17,153,Wunderground v.1.15,2013-09-07 23:45:00,
2013-09-07 18:50:00,87.4,74.2,29.81,SE,134,6.0,9.0,65,0.00,,,0.17,137,Wunderground v.1.15,2013-09-07 23:50:00,
2013-09-07 18:55:00,87.1,74.8,29.81,ENE,61,8.0,9.0,67,0.00,,,0.17,125,Wunderground v.1.15,2013-09-07 23:55:00,
2013-09-07 19:00:00,86.0,74.2,29.81,East,84,4.0,4.0,68,0.00,,,0.17,107,Wunderground v.1.15,2013-09-08 00:00:00,
2013-09-07 19:05:00,85.3,73.5,29.81,ENE,65,2.0,4.0,68,0.00,,,0.17,49,Wunderground v.1.15,2013-09-08 00:05:00,
2013-09-07 19:10:00,84.7,73.0,29.81,NE,41,2.0,7.0,68,0.00,,,0.17,69,Wunderground v.1.15,2013-09-08 00:10:00,
2013-09-07 19:15:00,84.4,73.1,29.82,East,101,2.0,7.0,69,0.00,,,0.17,42,Wunderground v.1.15,2013-09-08 00:15:00,
2013-09-07 19:20:00,84.3,73.0,29.82,ENE,76,2.0,2.0,69,0.00,,,0.17,25,Wunderground v.1.15,2013-09-08 00:20:00,
2013-09-07 19:25:00,84.2,73.3,29.82,ENE,74,1.0,2.0,70,0.00,,,0.17,16,Wunderground v.1.15,2013-09-08 00:25:00,
2013-09-07 19:30:00,84.0,73.2,29.83,East,96,2.0,2.0,70,0.00,,,0.17,12,Wunderground v.1.15,2013-09-08 00:30:00,
2013-09-07 19:35:00,83.7,72.9,29.83,ENE,57,2.0,2.0,70,0.00,,,0.17,7,Wunderground v.1.15,2013-09-08 00:35:00,
2013-09-07 19:40:00,83.4,72.6,29.83,NE,42,2.0,3.0,70,0.00,,,0.17,0,Wunderground v.1.15,2013-09-08 00:40:00,
2013-09-07 19:50:00,82.9,72.5,29.83,ENE,63,2.0,2.0,71,0.00,,,0.17,0,Wunderground v.1.15,2013-09-08 00:50:00,
2013-09-07 19:55:00,82.7,72.3,29.83,East,98,1.0,2.0,71,0.00,,,0.17,0,Wunderground v.1.15,2013-09-08 00:55:00,
2013-09-07 20:00:00,82.5,72.6,29.84,ENE,64,1.0,1.0,72,0.00,,,0.17,0,Wunderground v.1.15,2013-09-08 01:00:00,
2013-09-07 20:05:00,82.3,72.4,29.84,ENE,59,1.0,1.0,72,0.00,,,0.17,0,Wunderground v.1.15,2013-09-08 01:05:00,
2013-09-07 20:10:00,82.1,72.6,29.84,ENE,59,0.0,0.0,73,0.00,,,0.17,0,Wunderground v.1.15,2013-09-08 01:10:00,
2013-09-07 20:15:00,81.8,72.7,29.84,ENE,63,0.0,0.0,74,0.00,,,0.17,0,Wunderground v.1.15,2013-09-08 01:15:00,
2013-09-07 20:20:00,81.7,72.6,29.84,ENE,59,0.0,0.0,74,0.00,,,0.17,0,Wunderground v.1.15,2013-09-08 01:20:00,
2013-09-07 20:30:00,81.3,72.6,29.84,ENE,63,1.0,2.0,75,0.00,,,0.17,0,Wunderground v.1.15,2013-09-08 01:30:00,
2013-09-07 20:40:00,80.9,73.0,29.84,ENE,64,0.0,0.0,77,0.00,,,0.17,0,Wunderground v.1.15,2013-09-08 01:40:00,
2013-09-07 20:50:00,80.6,73.1,29.84,ENE,72,0.0,0.0,78,0.00,,,0.17,0,Wunderground v.1.15,2013-09-08 01:50:00,
2013-09-07 20:55:00,80.4,73.7,29.84,NE,49,0.0,0.0,80,0.00,,,0.17,0,Wunderground v.1.15,2013-09-08 01:55:00,
2013-09-07 21:00:00,80.2,73.5,29.84,NE,55,0.0,0.0,80,0.00,,,0.17,0,Wunderground v.1.15,2013-09-08 02:00:00,
2013-09-07 21:05:00,80.0,74.0,29.84,ENE,61,1.0,1.0,82,0.00,,,0.17,0,Wunderground v.1.15,2013-09-08 02:05:00,
2013-09-07 21:10:00,79.8,73.8,29.84,ENE,76,1.0,1.0,82,0.00,,,0.17,0,Wunderground v.1.15,2013-09-08 02:10:00,
2013-09-07 21:15:00,79.7,74.1,29.84,ENE,67,1.0,1.0,83,0.00,,,0.17,0,Wunderground v.1.15,2013-09-08 02:15:00,
2013-09-07 21:20:00,79.5,73.9,29.84,ENE,66,0.0,0.0,83,0.00,,,0.17,0,Wunderground v.1.15,2013-09-08 02:20:00,
2013-09-07 21:25:00,79.4,73.8,29.84,ENE,66,0.0,0.0,83,0.00,,,0.17,0,Wunderground v.1.15,2013-09-08 02:25:00,
2013-09-07 21:30:00,79.3,74.0,29.84,ENE,66,0.0,0.0,84,0.00,,,0.17,0,Wunderground v.1.15,2013-09-08 02:30:00,
2013-09-07 21:40:00,79.0,74.1,29.84,ENE,65,0.0,0.0,85,0.00,,,0.17,0,Wunderground v.1.15,2013-09-08 02:40:00,
2013-09-07 21:45:00,78.8,73.9,29.84,ENE,67,0.0,0.0,85,0.00,,,0.17,0,Wunderground v.1.15,2013-09-08 02:45:00,
2013-09-07 21:50:00,78.7,73.8,29.84,ENE,67,0.0,0.0,85,0.00,,,0.17,0,Wunderground v.1.15,2013-09-08 02:50:00,
2013-09-07 21:55:00,78.7,74.2,29.84,ENE,67,0.0,0.0,86,0.00,,,0.17,0,Wunderground v.1.15,2013-09-08 02:55:00,
2013-09-07 22:00:00,78.5,74.0,29.84,ENE,67,0.0,0.0,86,0.00,,,0.17,0,Wunderground v.1.15,2013-09-08 03:00:00,
2013-09-07 22:05:00,78.3,73.8,29.84,ENE,67,0.0,0.0,86,0.00,,,0.17,0,Wunderground v.1.15,2013-09-08 03:05:00,
2013-09-07 22:15:00,78.1,73.9,29.84,ENE,67,0.0,0.0,87,0.00,,,0.17,0,Wunderground v.1.15,2013-09-08 03:15:00,
2013-09-07 22:20:00,78.0,73.8,29.84,ENE,67,0.0,0.0,87,0.00,,,0.17,0,Wunderground v.1.15,2013-09-08 03:20:00,
2013-09-07 22:30:00,77.9,73.7,29.84,ESE,113,2.0,2.0,87,0.00,,,0.17,0,Wunderground v.1.15,2013-09-08 03:30:00,
2013-09-07 22:35:00,77.9,73.7,29.84,ESE,113,1.0,2.0,87,0.00,,,0.17,0,Wunderground v.1.15,2013-09-08 03:35:00,
2013-09-07 22:40:00,77.9,73.7,29.84,ESE,113,0.0,0.0,87,0.00,,,0.17,0,Wunderground v.1.15,2013-09-08 03:40:00,
2013-09-07 22:45:00,77.9,73.7,29.85,ESE,113,0.0,0.0,87,0.00,,,0.17,0,Wunderground v.1.15,2013-09-08 03:45:00,
2013-09-07 22:50:00,77.9,73.7,29.85,ESE,113,0.0,0.0,87,0.00,,,0.17,0,Wunderground v.1.15,2013-09-08 03:50:00,
2013-09-07 22:55:00,77.9,73.7,29.85,ESE,113,0.0,0.0,87,0.00,,,0.17,0,Wunderground v.1.15,2013-09-08 03:55:00,
2013-09-07 23:00:00,77.8,73.6,29.85,ESE,113,0.0,0.0,87,0.00,,,0.17,0,Wunderground v.1.15,2013-09-08 04:00:00,
2013-09-07 23:05:00,77.8,73.6,29.85,ESE,114,0.0,0.0,87,0.00,,,0.17,0,Wunderground v.1.15,2013-09-08 04:05:00,
2013-09-07 23:10:00,77.8,73.6,29.85,ESE,114,0.0,0.0,87,0.00,,,0.17,0,Wunderground v.1.15,2013-09-08 04:10:00,
2013-09-07 23:15:00,77.8,73.6,29.85,ESE,113,0.0,0.0,87,0.00,,,0.17,0,Wunderground v.1.15,2013-09-08 04:15:00,
2013-09-07 23:20:00,77.9,73.7,29.85,ESE,113,0.0,0.0,87,0.00,,,0.17,0,Wunderground v.1.15,2013-09-08 04:20:00,
2013-09-07 23:25:00,77.9,73.7,29.85,ESE,114,0.0,0.0,87,0.00,,,0.17,0,Wunderground v.1.15,2013-09-08 04:25:00,
2013-09-07 23:30:00,77.9,73.7,29.85,ESE,113,0.0,0.0,87,0.00,,,0.17,0,Wunderground v.1.15,2013-09-08 04:30:00,
2013-09-07 23:35:00,77.9,73.4,29.85,ESE,114,0.0,0.0,86,0.00,,,0.17,0,Wunderground v.1.15,2013-09-08 04:35:00,
2013-09-07 23:40:00,77.8,73.6,29.85,ESE,114,0.0,0.0,87,0.00,,,0.17,0,Wunderground v.1.15,2013-09-08 04:40:00,
2013-09-07 23:45:00,77.8,73.6,29.85,ESE,113,0.0,0.0,87,0.00,,,0.17,0,Wunderground v.1.15,2013-09-08 04:45:00,
2013-09-07 23:50:00,77.7,73.5,29.85,ESE,114,0.0,0.0,87,0.00,,,0.17,0,Wunderground v.1.15,2013-09-08 04:50:00,
2013-09-07 23:55:00,77.7,73.5,29.85,ESE,114,0.0,0.0,87,0.00,,,0.17,0,Wunderground v.1.15,2013-09-08 04:55:00,